Chappell Hill, TX (77426)

7:20 PM CDT on July 07, 2015 (GMT -0500)
Piney Creek | | Change Station
CLOSE
Current Station
Personal Weather Station
Location: Bellville, TX
Elevation: 330 ft
Nearby Weather Stations

Elev 330 ft 30.01 °N, 96.28 °W | Updated 2 minutes ago

Clear
Clear
85.1 °F
Feels Like 92 °F
N
0.0
Wind Variable Wind from SE
Gusts 6.0 mph

Today
High -- | Low -- °F
--% Chance of Precip.
Yesterday
High -- | Low -- °F
Precip. -- in
6:29 AM 8:29 PM
Waning Gibbous, 60% visible
Pressure 29.97 in
Visibility 7.0 miles
Clouds Clear
Heat Index 92 °F
Dew Point 73 °F
Humidity 68%
Rainfall 0.00 in
Snow Depth Not available.
UV 0.0 out of 12
Pollen 3.80 out of 12
Air Quality Not available.
Flu Activity Not available.
METAR K11R 080015Z AUTO 16006KT 7SM CLR 31/22 A2997 RMK AO2 T03100224

More Conditions Fewer Conditions

Pressure 29.97 in
Visibility 7.0 miles
Clouds Clear
Heat Index 92 °F
Dew Point 73 °F
Humidity 68%
Rainfall 0.00 in
Snow Depth Not available.
UV 0.0 out of 12
Pollen 3.80 out of 12
Air Quality Not available.
Flu Activity Not available.
METAR K11R 080015Z AUTO 16006KT 7SM CLR 31/22 A2997 RMK AO2 T03100224

More Conditions Fewer Conditions

10-Day Weather Forecast

×

Almanac

Astronomy

Jul. 07, 2015 Rise Set
Actual Time
Civil Twilight
Nautical Twilight
Astronomical Twilight
Moon
Length of Visible Light
Length of Day
Tomorrow will be .
, % of the Moon is Illuminated

Today's Extremes

State Highs State Lows

Community

WunderPhotos

Upload Photos

1,835,970 photos uploaded!

WunderBlogs® & News

Nearby

Air Quality

  Air Quality AQ Index Pollutant
Not available.

Snow Depth

Station Depth Elevation

Earthquake Activity

City Distance Mag. Time & Date
Minimum magnitude displayed is 2.5.

Coastal Water Temperatures

Place Temperature

Stations

Nearby Weather Stations

Station Location Temp. Windchill Dew Point Humidity Wind Precip. Elev Updated Type